Flag for Japan Weather past 2 weeks in Hiroshima, Japan

Now
65 °F

Sunny.


Feels Like: 65 °F
Forecast: 39 / 78 °F
Wind: 6 mph from East

Location: Iwakuni Marine Corps Air Station

Current Time: Apr 26, 2015 at 12:58:01 PM

Latest Report: Apr 26, 2015 at 11:55 AM


Visibility: 6 mi

Pressure: 30.15 "Hg

Humidity: 68%

Dew point: 54 °F

Location of HiroshimaLocation

Historic Weather in Hiroshima — Graph

°F

Hiroshima temperature yesterday

Maximum temperature yesterday: 71 °F (at 2:55 PM)
Minimum temperature yesterday: 53 °F (at 5:55 AM)
Average temperature yesterday: 62 °F

Past Weeks' High & Low Weather Summary

 TemperatureHumidityPressure
High73 °F (Apr 24, 3:55 PM)97% (Apr 19, 4:55 PM)30.33 "Hg (Apr 19, 4:55 PM)
Low47 °F (Apr 18, 4:55 AM)29% (Apr 24, 4:55 PM)29.53 "Hg (Apr 20, 1:55 PM)
Average60 °F69%29.98 "Hg
* Reported Apr 11 10:55 AM — Apr 26 10:55 AM, Hiroshima, Weather by CustomWeather, © 2015

Note: Actual official high and low records may vary slightly from our data, if they occured in-between our weather recording intervals... More about our weather records

Advertising

Hiroshima weather history for previous 24 hours

 ConditionsComfort  
Time TempWeatherWind HumidityBarometerVisibility
10:55 AM
Sun, Apr 26
65 °FSunny.6 mph68%30.16 "Hg6 mi
9:55 AM63 °FSunny.6 mph65%30.17 "Hg6 mi
8:55 AM60 °FSunny.5 mph67%30.17 "Hg6 mi
7:55 AM58 °FSunny.6 mph70%30.16 "Hg6 mi
6:55 AM54 °FSunny.6 mph77%30.15 "HgN/A
5:55 AM53 °FSunny.7 mph80%30.14 "HgN/A
4:55 AM54 °FPassing clouds.6 mph80%30.12 "HgN/A
2:55 AM56 °FPassing clouds.8 mph75%30.10 "HgN/A
1:55 AM57 °FPassing clouds.6 mph78%30.10 "HgN/A
12:55 AM59 °FPassing clouds.8 mph72%30.10 "HgN/A
11:55 PM
Sat, Apr 25
60 °FPassing clouds.6 mph69%30.10 "HgN/A
10:55 PM61 °FPassing clouds.6 mph70%30.10 "HgN/A
9:55 PM63 °FPassing clouds.6 mph78%30.10 "HgN/A
8:55 PM63 °FPassing clouds.No wind78%30.08 "HgN/A
7:55 PM63 °FPassing clouds.6 mph78%30.06 "HgN/A
6:55 PM64 °FPassing clouds.8 mph78%30.03 "HgN/A
4:55 PM67 °FSunny.3 mph71%30.01 "HgN/A
3:55 PM68 °FSunny.9 mph68%30.01 "HgN/A
2:55 PM71 °FSunny.9 mph57%30.03 "HgN/A
1:55 PM70 °FSunny.7 mph57%30.04 "HgN/A
12:55 PM69 °FPassing clouds.7 mph55%30.06 "HgN/A
Weather by CustomWeather, © 2015

See weather overviewHow to use our weather pages